Regional Weather Roundup
Issued by NWS

Home | Current Version | Previous Version | Graphics & Text | Print | Product List | Glossary On
Versions: 1 2 3 4 5 6 7 8 9 10 11 12 13 14 15 16 17 18 19 20 21 22 23 24 25 26 27 28 29 30 31 32 33 34 35 36 37 38 39 40 41 42 43 44 45 46 47 48 49 50
000
ASUS43 KMKX 230300
RWRWI

WISCONSIN REGIONAL WEATHER ROUNDUP
NATIONAL WEATHER SERVICE MILWAUKEE/SULLIVAN WI
1000 PM CDT TUE JUL 22 2014

NOTE: "FAIR" INDICATES FEW OR NO CLOUDS BELOW 12,000 FEET WITH NO
SIGNIFICANT WEATHER AND/OR OBSTRUCTIONS TO VISIBILITY.

WIZ001-002-006>008-014>016-023>028-230400-
NORTHWEST WISCONSIN

CITY           SKY/WX    TMP DP  RH WIND       PRES   REMARKS
SUPERIOR ARPT  PTCLDY    59  56  89 CALM      30.13R
ASHLAND        CLEAR     59  57  93 SE3       30.14R
HAYWARD        CLEAR     63  60  90 CALM      30.15R
SIREN          CLEAR     67  58  74 CALM      30.14R
RICE LAKE      CLEAR     69  58  68 N5        30.14R
LADYSMITH      CLEAR     66  60  82 NE5       30.15R
EAU CLAIRE     NOT AVBL
MENOMONIE      PTCLDY    73  61  67 N7        30.10R
NEW RICHMOND   CLEAR     68  57  68 N7        30.13R
OSCEOLA        CLEAR     70  57  63 N5        30.15R
$$

WIZ003>005-009-010-017-018-230400-
NORTH CENTRAL WISCONSIN

CITY           SKY/WX    TMP DP  RH WIND       PRES   REMARKS
WOODRUFF       PTCLDY    62  57  84 CALM      30.14R
RHINELANDER    PTCLDY    61  57  87 N3        30.14R
EAGLE RIVER    PTCLDY    60  57  91 CALM      30.13R
LAND O LAKES   PTCLDY    60  57  92 NW3       30.14R
PHILLIPS       CLEAR     62  58  88 CALM      30.14R
TOMAHAWK       PTCLDY    60  57  91 CALM      30.14R
MEDFORD        CLEAR     64  58  82 N6        30.12S
MERRILL        CLEAR     62  59  89 N6        30.12R
$$

WIZ029-030-035-036-043>047-230400-
CENTRAL WISCONSIN

CITY           SKY/WX    TMP DP  RH WIND       PRES   REMARKS
WAUSAU         CLEAR     67  59  75 N9        30.09R
MOSINEE        CLEAR     66  61  82 N9        30.11R
MARSHFIELD     CLEAR     69  58  67 N13G20    30.10R
STEVENS POINT  CLEAR     68  58  71 N13G20    30.08R
WAUPACA        CLEAR     74  61  63 N10G23    30.04R
WAUTOMA        NOT AVBL
WISC RAPIDS    CLEAR     71  59  65 N15G21    30.09R
CAMP DOUGLAS   NOT AVBL
$$

WIZ011>013-019>022-031-037>040-048>050-230400-
NORTHEAST WISCONSIN

CITY           SKY/WX    TMP DP  RH WIND       PRES   REMARKS
ANTIGO         PTCLDY    62  59  90 N9        30.10S
STURGEON BAY   CLOUDY    66  57  72 N21       30.05R
GREEN BAY      CLEAR     70  60  70 N16G22    30.03R
MANITOWOC      NOT AVBL
APPLETON       PTCLDY    72  59  64 N20G29    30.04R
CLINTONVILLE   CLEAR     70  57  64 N9G17     30.05R
OSHKOSH        CLEAR     75  63  66 N24G30    30.02R
$$

WIZ032>034-041-042-053>061-230400-
SOUTHWEST WISCONSIN

CITY           SKY/WX    TMP DP  RH WIND       PRES   REMARKS
LA CROSSE      CLEAR     73  63  70 N6        30.06R
SPARTA         CLEAR     72  61  67 NW5       30.07R
VIROQUA        FAIR      72  63  74 N5        30.08R
BOSCOBEL       CLEAR     78  65  63 N6        30.04R HX  80
PRAIRIE DU CHI CLEAR     78  64  61 NW6       30.04R HX  80
PLATTEVILLE    FAIR      78  66  66 NW12G17   30.04R HX  80
$$

WIZ056-057-062-063-064-067-068-230400-
SOUTH CENTRAL WISCONSIN

CITY           SKY/WX    TMP DP  RH WIND       PRES   REMARKS
BARABOO/DELLS  PTCLDY    76  61  60 NW7       30.04R
LONE ROCK      NOT AVBL
WATERTOWN      PTCLDY    78  66  67 NW13      29.99R HX  80
MADISON        PTCLDY    79  65  62 N10G21    30.02R HX  81
MIDDLETON      CLOUDY    79  65  63 N12G18    30.02R HX  80
MONROE         CLEAR     79  68  69 N8        30.00S HX  81
JANESVILLE     MOCLDY    82  70  65 NW13      29.98R HX  86
$$

WIZ051-052-058>065-066-070>072-230400-
SOUTHEAST WISCONSIN

CITY           SKY/WX    TMP DP  RH WIND       PRES   REMARKS
MILWAUKEE      MOCLDY    82  66  58 N16G23    29.95R HX  84
WAUKESHA       PTCLDY    79  64  61 NW10G18   29.98R HX  81
MILWAUKEE/TIMM MOCLDY    81  63  54 N15       29.97R HX  82
RACINE         CLOUDY    84  67  56 N13G24    29.96R HX  86
BURLINGTON     MOCLDY    77  74  88 NW8       29.96R
KENOSHA        MOCLDY    82  75  79 NW9       29.94R HX  89
FOND DU LAC    PTCLDY    76  62  62 N13       30.02R
SHEBOYGAN      MOCLDY    77  63  61 N16G30    29.99R
WEST BEND      CLEAR     77  63  61 NW15G22   30.00R
JUNEAU         CLEAR     77  62  61 N10G18    30.02R
$$

LSZ147-162-230400-
LAKE SUPERIOR

STATION/POSITION TIME  TEMP    WIND        PRES    WAVE
                       AIR SEA DIR/SP/G            HT/PER
                 (UTC) (F)     (DEG/KT/KT) (MB)    (FT/S)
W MID LAKE BUOY  0150   51 40  190/  6/  6 1019.2R   1/ 4
PORT WING        0200   65     280/  3/  4 1019.6R
SAXON HARBOR     0240             CALM     1020.0R
$$

LMZ867-665-643>646-230400-
LAKE MICHIGAN

STATION/POSITION TIME  TEMP    WIND        PRES    WAVE
                       AIR SEA DIR/SP/G            HT/PER
                 (UTC) (F)     (DEG/KT/KT) (MB)    (FT/S)
N MID LAKE BUOY  0150   62 57  340/ 23/ 29 1014.1R   5/ 6
NORTHPORT PIER   0200   67     350/ 26/ 31 1015.6R
KEWAUNEE LAKESHO 0200   76     340/ 13/ 20 1015.7R
SHEBOYGAN LAKESH 0200           10/ 15/ 20 1014.3R
PORT WASHINGTON  0200   83     320/  8/ 14 1014.2R
ATWATER BUOY     0200   62     350/  6     1014.4R
MILWAUKEE LAKESH 0200   83     310/  8/ 12   N/A
S MID LAKE BUOY  0150   71 66  210/ 10/ 12 1012.5F   1/ 4
KENOSHA   LAKESH 0200   86     250/ 10/ 14   N/A
$$

TC  - TEMPERATURE IN CELSIUS
VSB - VISIBILITY IN STATUTE MILES
WCI - WIND CHILL INDEX
HX  - HEAT INDEX



USA.gov is the U.S. government's official web portal to all federal, state and local government web resources and services.